McMinnville, OR

4:47 PM PDT on April 27, 2017 (GMT -0700)
McMinnville Municipal

Weather History for KMMV - September, 2013

Change the Weather History Date:

Tuesday, September 24, 2013

  Actual Average Record
Temperature  
Mean Temperature 56 °F 59 °F  
Max Temperature 61 °F 73 °F 96 °F (1974)
Min Temperature 50 °F 46 °F 25 °F (1908)
Degree Days  
Heating Degree Days 9 6  
Month to date heating degree days 51 87  
Since 1 July heating degree days 68 172  
Cooling Degree Days 0 0  
Month to date cooling degree days 68 31  
Year to date cooling degree days 405 215  
Growing Degree Days 5 (Base 50)    
Moisture  
Dew Point 53 °F    
Average Humidity 90    
Maximum Humidity 100    
Minimum Humidity 80    
Precipitation  
Precipitation 0.19 in 0.05 in 0.75 in (1923)
Month to date precipitation 2.17 0.98  
Year to date precipitation 13.23 23.31  
Sea Level Pressure  
Sea Level Pressure 29.94 in    
Wind  
Wind Speed 3 mph (SW)    
Max Wind Speed 13 mph    
Max Gust Speed 20 mph    
Visibility 9 miles    
Events Rain    
T = Trace of Precipitation, MM = Missing Value Source: NWS Daily Summary

Daily Weather History Graph

Daily Weather History Graph

Search for Another Location

Airport or City:

Trip Planner

Search our weather history database for the weather conditions in past years. The results will help you decide how hot, cold, wet, or windy it might be!

Date:

Astronomy

Sep. 24, 2013 Rise Set
Actual Time 7:02 AM PDT 7:05 PM PDT
Civil Twilight 6:33 AM PDT 7:34 PM PDT
Nautical Twilight 5:58 AM PDT 8:09 PM PDT
Astronomical Twilight 5:23 AM PDT 8:44 PM PDT
Moon 10:13 PM PDT (9/24) 12:36 PM PDT (9/24)
Length of Visible Light 13h 01m
Length of Day
12h 03m
Waning Gibbous, 72% of the Moon is Illuminated
Sep 24
Waning Gibbous
Sep 26
Last Quarter
Oct 4
New
Oct 11
First Quarter
Oct 18
Full

Hourly Weather History & Observations

Time (PDT) Temp. Dew Point Humidity Pressure Visibility Wind Dir Wind Speed Gust Speed Precip Events Conditions
12:53 AM 54.0 °F 54.0 °F 100% 30.00 in 10.0 mi NNW 4.6 mph - N/A   Overcast
1:53 AM 53.1 °F 53.1 °F 100% 29.99 in 10.0 mi Calm Calm - N/A   Overcast
2:53 AM 53.1 °F 53.1 °F 100% 29.99 in 10.0 mi NW 3.5 mph - 0.00 in Rain Light Rain
3:53 AM 53.1 °F 52.0 °F 96% 29.98 in 10.0 mi NW 3.5 mph - 0.03 in   Overcast
4:53 AM 53.1 °F 52.0 °F 96% 29.96 in 10.0 mi Calm Calm - N/A   Overcast
5:53 AM 53.1 °F 52.0 °F 96% 29.95 in 10.0 mi Calm Calm - N/A   Overcast
6:53 AM 53.1 °F 53.1 °F 100% 29.94 in 10.0 mi Calm Calm - N/A   Overcast
7:22 AM 53.6 °F 53.6 °F 100% 29.95 in 10.0 mi Calm Calm - N/A   Overcast
7:38 AM 53.6 °F 53.6 °F 100% 29.95 in 10.0 mi Calm Calm - N/A   Overcast
7:53 AM 53.1 °F 53.1 °F 100% 29.95 in 10.0 mi Calm Calm - 0.00 in Rain Light Rain
8:03 AM 53.6 °F 53.6 °F 100% 29.95 in 10.0 mi Calm Calm - 0.00 in Rain Light Rain
8:14 AM 53.6 °F 53.6 °F 100% 29.95 in 10.0 mi Calm Calm - 0.00 in Rain Light Rain
8:53 AM 54.0 °F 54.0 °F 100% 29.95 in 10.0 mi Calm Calm - 0.00 in   Overcast
9:53 AM 55.0 °F 53.1 °F 93% 29.96 in 10.0 mi Calm Calm - N/A   Overcast
10:00 AM 55.4 °F 53.6 °F 94% 29.96 in 10.0 mi SSW 3.5 mph - N/A   Overcast
10:13 AM 55.4 °F 53.6 °F 94% 29.96 in 10.0 mi Calm Calm - N/A   Overcast
10:53 AM 57.0 °F 53.1 °F 87% 29.96 in 10.0 mi SW 5.8 mph - N/A   Overcast
11:53 AM 59.0 °F 53.1 °F 81% 29.94 in 10.0 mi South 6.9 mph - N/A   Scattered Clouds
12:53 PM 57.9 °F 52.0 °F 81% 29.94 in 6.0 mi SSW 6.9 mph - 0.01 in Rain Light Rain
1:07 PM 55.4 °F 53.6 °F 94% 29.94 in 2.0 mi SSW 9.2 mph - 0.05 in Rain Rain
1:19 PM 57.2 °F 55.4 °F 94% 29.95 in 8.0 mi SW 8.1 mph - 0.06 in Rain Light Rain
1:50 PM 55.4 °F 51.8 °F 88% 29.94 in 9.0 mi Calm Calm - 0.07 in Rain Light Rain
1:53 PM 55.9 °F 52.0 °F 87% 29.94 in 10.0 mi Calm Calm - 0.07 in Rain Light Rain
2:01 PM 57.2 °F 53.6 °F 88% 29.93 in 10.0 mi ENE 3.5 mph - 0.01 in Rain Light Rain
2:53 PM 57.9 °F 52.0 °F 81% 29.92 in 10.0 mi South 5.8 mph - 0.01 in Rain Light Rain
3:53 PM 57.0 °F 52.0 °F 83% 29.91 in 10.0 mi South 6.9 mph - 0.00 in   Overcast
4:40 PM 53.6 °F 51.8 °F 94% 29.91 in 1.8 mi NW 4.6 mph - 0.06 in Rain Heavy Rain
4:48 PM 53.6 °F 51.8 °F 94% 29.91 in 4.0 mi Calm Calm - 0.07 in Rain Light Rain
4:49 PM 55.0 °F 52.0 °F 89% 29.91 in 6.0 mi Calm Calm - 0.07 in Rain Light Rain
5:53 PM 55.0 °F 52.0 °F 89% 29.91 in 10.0 mi SW 4.6 mph - 0.00 in   Overcast
6:53 PM 54.0 °F 51.1 °F 90% 29.89 in 10.0 mi South 3.5 mph - N/A   Overcast
7:53 PM 53.1 °F 52.0 °F 96% 29.89 in 10.0 mi Calm Calm - 0.00 in   Overcast
8:53 PM 53.1 °F 52.0 °F 96% 29.89 in 10.0 mi Calm Calm - N/A   Overcast
9:53 PM 52.0 °F 51.1 °F 97% 29.89 in 10.0 mi South 3.5 mph - N/A   Overcast
10:53 PM 51.1 °F 48.9 °F 92% 29.88 in 10.0 mi SW 8.1 mph - 0.00 in   Mostly Cloudy
11:53 PM 51.1 °F 48.9 °F 92% 29.88 in 10.0 mi WSW 8.1 mph - N/A   Overcast